Theta_e
313 312 311 312 311 308 312 316 323 328 332 333 334 336 338 337 336 336 336 335 335 336 335 336 337 338 338 336 335 336 336 335
312 312 311 310 310 310 310 310 310 310 311 314 322 330 337 339 339 338 337 337 336 335 336 336 337 338 338 336 336 335 336 334
310 311 310 310 310 311 311 311 313 313 314 312 309 312 313 320 332 337 338 339 340 339 337 336 336 336 337 336 336 336 335 336
309 310 310 310 311 310 311 311 312 311 313 312 313 314 313 317 317 320 332 338 338 339 338 337 337 336 336 337 336 334 335 336
309 309 309 309 310 310 310 310 310 311 311 310 311 313 314 314 315 317 319 324 333 339 339 339 337 337 336 336 338 337 335 335
308 308 308 308 309 309 309 309 309 310 309 310 310 310 311 312 314 314 316 318 319 327 336 339 339 339 339 338 338 338 338 336
308 307 307 307 308 308 308 308 308 307 308 309 308 309 309 309 310 312 314 315 317 318 325 332 338 338 337 338 338 338 339 337
307 306 306 307 306 307 307 307 307 307 307 308 307 307 308 308 309 310 311 313 314 316 317 319 327 331 337 338 337 336 337 337
306 306 306 305 305 305 306 306 305 305 306 306 306 306 306 306 306 307 308 309 310 311 315 318 321 325 328 337 337 337 337 338
306 305 305 304 304 304 304 304 304 304 304 303 305 304 303 303 303 303 302 303 304 306 310 315 316 321 327 329 336 337 336 336
305 304 303 303 303 302 302 303 303 302 302 302 302 301 302 300 299 300 299 301 302 304 307 310 315 316 319 326 329 333 336 335
304 303 302 302 301 301 301 301 300 301 301 301 300 299 299 297 297 297 299 300 301 302 304 306 307 311 317 317 324 328 332 335
303 302 301 300 300 299 299 299 299 300 300 297 297 296 295 295 295 295 296 297 299 300 302 304 305 308 311 318 319 322 326 331
302 302 300 299 298 298 297 298 298 297 295 295 294 293 293 293 293 293 293 294 296 298 301 303 305 306 310 313 320 322 326 328
302 301 299 298 297 297 296 296 295 294 293 292 292 291 291 291 291 291 291 292 294 295 298 300 302 305 307 311 320 321 324 330
300 299 298 297 296 296 295 295 294 293 292 291 290 290 290 290 290 289 290 290 292 295 297 299 302 303 306 310 311 315 319 326
300 299 297 296 296 295 294 293 293 292 291 290 289 289 289 289 288 288 288 289 290 291 293 296 299 303 305 306 308 312 316 318
299 298 296 295 295 294 293 292 292 291 290 289 288 288 288 288 287 286 287 287 289 291 292 295 297 300 302 306 307 310 314 318
297 295 295 294 294 292 291 291 290 289 289 288 287 287 287 286 286 285 285 286 287 289 290 291 293 297 301 304 306 310 310 313
295 293 294 294 293 292 290 289 289 288 287 287 286 287 287 286 285 284 284 284 285 286 287 288 290 291 294 296 300 307 310 313
Wind_Speed
13 13 12 13 13 12 10 10 10 8 8 9 10 10 12 14 15 16 17 18 18 18 18 19 18 17 17 16 16 16 17 17
13 12 13 14 14 14 15 14 13 13 11 12 8 8 6 10 13 17 20 21 21 22 21 20 20 20 19 19 18 17 19 20
13 13 13 13 11 13 14 15 14 14 16 15 14 12 12 10 12 16 17 19 22 25 25 23 21 23 22 21 20 21 20 19
14 14 15 14 11 13 12 13 14 14 15 18 19 17 15 13 15 14 15 19 23 25 28 28 26 26 26 20 24 26 23 20
14 15 15 15 14 13 12 15 16 16 15 19 18 18 17 18 17 16 17 18 20 21 23 27 33 30 30 27 26 28 27 25
11 13 14 16 16 14 14 14 15 15 19 18 19 21 21 20 19 20 19 19 20 21 23 23 26 27 30 28 27 28 26 23
11 12 14 16 15 15 15 14 14 18 16 16 20 20 21 22 22 22 21 22 23 24 23 25 23 27 30 32 33 32 28 30
11 12 13 15 16 16 16 15 16 15 16 16 17 19 20 21 23 23 23 22 24 26 27 26 25 31 27 30 34 35 32 29
11 11 13 15 13 14 13 13 15 17 17 17 18 18 19 21 23 22 23 24 26 28 24 25 27 28 31 30 33 34 38 31
10 11 13 15 15 14 15 15 16 16 17 18 18 18 20 22 22 22 25 29 29 26 25 27 27 27 27 29 28 34 37 39
10 12 16 17 16 15 15 15 15 16 17 17 19 21 18 21 22 25 27 26 24 24 26 26 26 27 28 26 27 28 34 38
11 13 16 16 16 16 16 16 17 17 17 17 19 21 21 24 21 22 21 21 22 23 26 27 28 29 28 29 27 28 30 33
12 13 15 16 17 17 17 18 18 17 17 21 21 22 25 22 21 24 24 23 23 25 25 25 28 25 28 24 30 32 33 32
12 13 14 15 15 15 17 17 17 17 22 20 22 24 23 22 23 24 23 24 24 24 22 23 23 22 17 21 7 15 26 31
10 11 12 15 16 16 17 16 17 19 21 21 24 23 23 23 25 24 25 23 23 24 24 24 24 21 23 12 4 5 5 20
9 9 12 14 17 18 18 17 16 18 20 22 22 23 23 24 24 27 25 24 23 23 23 24 22 21 22 22 26 22 6 5
8 9 12 13 15 17 17 17 17 17 21 21 23 22 22 24 26 28 27 25 25 25 26 25 24 23 21 23 24 24 23 10
7 8 11 12 14 15 17 18 19 20 22 22 23 23 23 25 27 28 28 27 26 26 25 25 25 25 26 24 25 16 10 9
7 10 11 12 13 14 16 18 18 19 21 21 23 24 26 29 29 30 30 26 26 25 23 24 23 22 22 24 27 27 29 27
8 9 10 12 13 14 15 15 16 17 19 21 22 24 24 28 28 31 31 31 29 26 23 25 23 21 19 19 22 31 31 29
Wind_Direction
46 41 40 45 22 23 30 28 28 18 1 348 345 346 303 282 278 274 272 271 273 274 271 267 266 267 266 263 263 264 263 255
50 36 30 41 18 12 22 19 13 11 9 349 1 8 333 321 303 290 277 273 270 266 266 267 267 265 264 260 259 259 259 260
30 34 26 46 21 13 10 11 3 10 360 343 350 338 331 321 292 293 288 279 274 272 268 263 261 264 261 258 256 252 252 260
30 24 18 29 23 19 5 8 355 4 351 341 352 343 342 330 318 305 312 298 278 273 267 263 257 256 259 259 252 250 245 242
27 19 14 15 22 10 7 2 349 0 332 356 343 347 338 338 326 325 315 309 295 289 282 270 257 251 251 244 251 248 242 236
27 20 12 11 23 3 5 356 354 338 354 345 343 335 340 335 333 321 309 313 304 297 292 275 265 253 244 242 240 239 236 229
25 20 13 8 10 0 356 1 347 343 342 345 335 341 334 331 328 327 321 315 310 302 297 289 288 267 259 252 242 244 235 229
23 22 13 6 5 354 355 350 342 343 341 338 340 335 333 331 328 326 321 319 314 308 304 297 291 281 272 258 253 247 248 247
23 19 12 5 2 355 353 345 343 341 340 339 337 336 336 334 326 323 323 324 322 308 300 304 288 284 280 272 258 249 249 246
24 21 14 5 2 1 353 347 346 343 341 338 338 337 335 333 331 327 321 320 316 309 311 303 297 292 283 278 271 259 248 247
26 22 15 9 6 1 354 352 349 346 341 340 337 342 338 333 330 315 314 313 311 308 304 302 301 291 290 280 274 272 260 248
31 25 16 12 6 360 357 355 351 345 344 342 349 345 342 335 328 322 318 319 308 304 304 304 309 307 293 284 278 268 266 259
33 28 22 17 10 2 357 353 347 349 350 351 352 348 348 344 336 330 324 318 310 305 305 298 298 303 314 290 273 268 260 257
36 32 27 20 12 7 2 351 355 359 357 354 351 351 349 345 342 335 330 323 314 306 304 306 289 288 286 309 287 281 260 249
46 44 36 26 18 15 10 8 7 4 0 355 350 350 350 348 344 339 332 325 311 306 301 291 289 289 279 261 301 256 322 234
52 50 42 30 25 23 20 15 11 4 360 352 353 350 351 348 347 346 337 332 321 313 304 295 291 282 291 281 263 278 284 316
54 48 46 34 32 32 26 21 14 7 3 0 356 352 353 353 351 349 347 339 330 324 314 304 293 286 269 276 289 282 278 256
48 39 46 37 36 34 31 25 17 14 8 3 358 356 355 356 357 357 355 347 340 331 319 307 294 285 281 272 263 265 276 284
42 40 43 41 39 36 32 29 23 17 12 4 1 359 359 1 4 5 4 357 355 351 345 339 327 320 298 271 271 265 263 268
48 45 38 40 39 36 33 30 28 21 16 10 6 2 4 5 8 10 11 11 9 9 7 359 352 342 332 322 317 259 261 264